Weather History for KMML - October, 2012

Change the Weather History Date:

Tuesday, October 16, 2012

  Actual Average Record
Temperature  
Mean Temperature 62 °F -  
Max Temperature 75 °F 56 °F 89 °F (1958)
Min Temperature 50 °F 35 °F 26 °F (1952)
Degree Days  
Heating Degree Days 2    
Growing Degree Days 12 (Base 50)    
Moisture  
Dew Point 42 °F    
Average Humidity 47    
Maximum Humidity 66    
Minimum Humidity 31    
Precipitation  
Precipitation 0.00 in - - ()
Sea Level Pressure  
Sea Level Pressure 29.47 in    
Wind  
Wind Speed 12 mph (WSW)    
Max Wind Speed 22 mph    
Max Gust Speed 30 mph    
Visibility 10 miles    
Events      
Averages and records for this station are not official NWS values.
T = Trace of Precipitation, MM = Missing Value Source: NWS Daily Summary

Daily Weather History Graph

Daily Weather History Graph

Search for Another Location

Airport or City:

Trip Planner

Search our weather history database for the weather conditions in past years. The results will help you decide how hot, cold, wet, or windy it might be!

Date:

Astronomy

Oct. 16, 2012 Rise Set
Actual Time 7:40 AM CDT 6:36 PM CDT
Civil Twilight 7:10 AM CDT 7:05 PM CDT
Nautical Twilight 6:37 AM CDT 7:39 PM CDT
Astronomical Twilight 6:03 AM CDT 8:13 PM CDT
Moon 9:09 AM CDT (10/16) 7:15 PM CDT (10/16)
Length of Visible Light 11h 54m
Length of Day
10h 56m
New Moon, 2% of the Moon is Illuminated
Oct 16
New Moon
Oct 21
First Quarter
Oct 29
Full
Nov 6
Last Quarter
Nov 13
New

Hourly Weather History & Observations

Time (CDT) Temp. Dew Point Humidity Pressure Visibility Wind Dir Wind Speed Gust Speed Precip Events Conditions
12:15 AM 62.6 °F 39.2 °F 42% 29.63 in 10.0 mi SSW 21.9 mph 29.9 mph N/A   Partly Cloudy
12:35 AM 62.6 °F 39.2 °F 42% 29.62 in 10.0 mi SSW 20.7 mph 27.6 mph N/A   Scattered Clouds
12:55 AM 62.6 °F 39.2 °F 42% 29.62 in 10.0 mi SSW 21.9 mph 28.8 mph N/A   Partly Cloudy
1:15 AM 62.6 °F 39.2 °F 42% 29.61 in 10.0 mi SSW 20.7 mph 27.6 mph N/A   Clear
1:35 AM 62.6 °F 39.2 °F 42% 29.60 in 10.0 mi SSW 20.7 mph 28.8 mph N/A   Clear
1:55 AM 62.6 °F 39.2 °F 42% 29.59 in 10.0 mi SSW 20.7 mph 29.9 mph N/A   Clear
2:15 AM 60.8 °F 41.0 °F 48% 29.58 in 10.0 mi SSW 18.4 mph - N/A   Clear
2:35 AM 60.8 °F 41.0 °F 48% 29.57 in 10.0 mi SSW 21.9 mph 26.5 mph N/A   Clear
2:55 AM 60.8 °F 39.2 °F 45% 29.57 in 10.0 mi SSW 21.9 mph 29.9 mph N/A   Clear
3:15 AM 60.8 °F 41.0 °F 48% 29.56 in 10.0 mi SSW 20.7 mph - N/A   Clear
3:35 AM 60.8 °F 41.0 °F 48% 29.56 in 10.0 mi SSW 18.4 mph 27.6 mph N/A   Clear
3:55 AM 60.8 °F 41.0 °F 48% 29.58 in 10.0 mi SW 15.0 mph 20.7 mph N/A   Clear
4:15 AM 57.2 °F 41.0 °F 55% 29.59 in 10.0 mi North 8.1 mph - N/A   Clear
4:35 AM 57.2 °F 41.0 °F 55% 29.58 in 10.0 mi West 4.6 mph - N/A   Clear
4:55 AM 57.2 °F 39.2 °F 51% 29.58 in 10.0 mi Calm Calm - N/A   Clear
5:15 AM 55.4 °F 39.2 °F 54% 29.57 in 10.0 mi Calm Calm - N/A   Clear
5:35 AM 55.4 °F 41.0 °F 58% 29.56 in 10.0 mi Calm Calm - N/A   Clear
5:55 AM 55.4 °F 41.0 °F 58% 29.56 in 10.0 mi Calm Calm - N/A   Scattered Clouds
6:15 AM 53.6 °F 39.2 °F 58% 29.57 in 10.0 mi Calm Calm - N/A   Mostly Cloudy
6:35 AM 51.8 °F 39.2 °F 62% 29.56 in 10.0 mi Calm Calm - N/A   Partly Cloudy
7:15 AM 51.8 °F 39.2 °F 62% 29.55 in 10.0 mi SW 5.8 mph - N/A   Clear
7:35 AM 51.8 °F 39.2 °F 62% 29.55 in 10.0 mi South 4.6 mph - N/A   Clear
7:55 AM 51.8 °F 39.2 °F 62% 29.54 in 10.0 mi SSW 4.6 mph - N/A   Clear
8:15 AM 50.0 °F 39.2 °F 66% 29.54 in 10.0 mi West 3.5 mph - N/A   Clear
8:35 AM 50.0 °F 37.4 °F 62% 29.54 in 10.0 mi West 6.9 mph - N/A   Clear
8:55 AM 51.8 °F 37.4 °F 58% 29.54 in 10.0 mi WNW 10.4 mph - N/A   Clear
9:15 AM 55.4 °F 39.2 °F 54% 29.54 in 10.0 mi NW 10.4 mph - N/A   Clear
9:35 AM 57.2 °F 39.2 °F 51% 29.53 in 10.0 mi NW 8.1 mph - N/A   Clear
9:55 AM 60.8 °F 39.2 °F 45% 29.52 in 10.0 mi NW 8.1 mph - N/A   Clear
10:15 AM 62.6 °F 41.0 °F 45% 29.52 in 10.0 mi NW 10.4 mph - N/A   Clear
10:35 AM 66.2 °F 42.8 °F 43% 29.52 in 10.0 mi NW 11.5 mph - N/A   Scattered Clouds
10:55 AM 66.2 °F 42.8 °F 43% 29.52 in 10.0 mi NNW 10.4 mph - N/A   Partly Cloudy
11:15 AM 66.2 °F 42.8 °F 43% 29.51 in 10.0 mi NNW 10.4 mph - N/A   Clear
11:35 AM 66.2 °F 42.8 °F 43% 29.51 in 10.0 mi North 9.2 mph - N/A   Clear
11:55 AM 68.0 °F 42.8 °F 40% 29.50 in 10.0 mi North 8.1 mph - N/A   Clear
12:15 PM 69.8 °F 42.8 °F 38% 29.49 in 10.0 mi NNW 9.2 mph - N/A   Clear
12:35 PM 69.8 °F 42.8 °F 38% 29.48 in 10.0 mi North 6.9 mph - N/A   Clear
12:55 PM 71.6 °F 44.6 °F 38% 29.47 in 10.0 mi NW 9.2 mph - N/A   Clear
1:15 PM 71.6 °F 44.6 °F 38% 29.46 in 10.0 mi WNW 9.2 mph - N/A   Clear
1:35 PM 71.6 °F 44.6 °F 38% 29.45 in 10.0 mi West 8.1 mph - N/A   Clear
1:55 PM 73.4 °F 44.6 °F 36% 29.44 in 10.0 mi NNW 11.5 mph - N/A   Clear
2:15 PM 73.4 °F 44.6 °F 36% 29.44 in 10.0 mi NW 9.2 mph - N/A   Clear
2:35 PM 73.4 °F 44.6 °F 36% 29.42 in 10.0 mi North 5.8 mph - N/A   Clear
2:55 PM 73.4 °F 44.6 °F 36% 29.41 in 10.0 mi NNW 5.8 mph - N/A   Clear
3:15 PM 73.4 °F 44.6 °F 36% 29.41 in 10.0 mi NNW 3.5 mph - N/A   Clear
3:35 PM 73.4 °F 44.6 °F 36% 29.41 in 10.0 mi NNW 11.5 mph - N/A   Clear
3:55 PM 75.2 °F 44.6 °F 34% 29.41 in 10.0 mi West 5.8 mph - N/A   Clear
4:15 PM 75.2 °F 44.6 °F 34% 29.40 in 10.0 mi WNW 5.8 mph - N/A   Partly Cloudy
4:35 PM 73.4 °F 44.6 °F 36% 29.38 in 10.0 mi WSW 3.5 mph - N/A   Clear
4:55 PM 75.2 °F 42.8 °F 31% 29.38 in 10.0 mi Calm Calm - N/A   Clear
5:15 PM 75.2 °F 44.6 °F 34% 29.37 in 9.0 mi South 6.9 mph - N/A   Clear
5:35 PM 73.4 °F 42.8 °F 33% 29.38 in 10.0 mi West 3.5 mph - N/A   Partly Cloudy
5:55 PM 71.6 °F 42.8 °F 35% 29.38 in 10.0 mi WSW 9.2 mph - N/A   Partly Cloudy
6:15 PM 69.8 °F 42.8 °F 38% 29.38 in 10.0 mi WSW 6.9 mph - N/A   Clear
6:35 PM 68.0 °F 42.8 °F 40% 29.37 in 10.0 mi WSW 6.9 mph - N/A   Clear
6:55 PM 64.4 °F 41.0 °F 42% 29.38 in 10.0 mi WSW 10.4 mph - N/A   Clear
7:15 PM 64.4 °F 41.0 °F 42% 29.38 in 10.0 mi WSW 11.5 mph - N/A   Clear
7:35 PM 62.6 °F 42.8 °F 48% 29.39 in 10.0 mi WSW 10.4 mph - N/A   Clear
7:55 PM 62.6 °F 42.8 °F 48% 29.39 in 10.0 mi WSW 10.4 mph - N/A   Clear
8:15 PM 60.8 °F 42.8 °F 52% 29.38 in 10.0 mi WSW 6.9 mph - N/A   Clear
8:35 PM 60.8 °F 42.8 °F 52% 29.37 in 10.0 mi WSW 10.4 mph - N/A   Clear
8:55 PM 60.8 °F 42.8 °F 52% 29.35 in 10.0 mi SSW 5.8 mph - N/A   Clear
9:15 PM 57.2 °F 42.8 °F 59% 29.34 in 10.0 mi SSE 6.9 mph - N/A   Clear
9:35 PM 57.2 °F 41.0 °F 55% 29.34 in 10.0 mi SSE 5.8 mph - N/A   Clear
9:55 PM 59.0 °F 42.8 °F 55% 29.37 in 10.0 mi SSE 6.9 mph - N/A   Clear
10:15 PM 57.2 °F 41.0 °F 55% 29.36 in 10.0 mi SSE 4.6 mph - N/A   Clear
10:35 PM 59.0 °F 42.8 °F 55% 29.35 in 10.0 mi SSE 5.8 mph - N/A   Clear
10:55 PM 57.2 °F 42.8 °F 59% 29.33 in 10.0 mi SE 6.9 mph - N/A   Clear
11:15 PM 57.2 °F 42.8 °F 59% 29.33 in 10.0 mi SE 9.2 mph - N/A   Clear
11:35 PM 57.2 °F 41.0 °F 55% 29.32 in 10.0 mi SSE 10.4 mph - N/A   Clear
11:55 PM 55.4 °F 41.0 °F 58% 29.32 in 10.0 mi SSE 11.5 mph - N/A   Clear